Location: Branson Observatory
(36.6451°N, 93.2213°W)
Time: 09:01:43
(UTC-06:00)

OTV 5 (USA 277) - Visible Passes

Search period start: 17 December 2018 00:00
Search period end: 27 December 2018 00:00
Orbit: 340 x 348 km, 54.5° (Epoch: 10 December)

Date Brightness Start Highest point End Pass type
(mag) Time Alt. Az. Time Alt. Az. Time Alt. Az.
17 Dec ? 04:53:25 11° ESE 04:53:25 11° ESE 04:53:37 10° ESE visible
17 Dec ? 06:24:53 12° WSW 06:25:37 13° SW 06:27:01 10° SSW visible
18 Dec ? 05:16:48 15° SSE 05:16:48 15° SSE 05:17:26 10° SSE visible
22 Dec ? 18:27:23 10° SSE 18:27:51 12° SSE 18:27:51 12° SSE visible
23 Dec ? 18:49:36 10° SSW 18:51:15 29° SSW 18:51:15 29° SSW visible
24 Dec ? 17:39:56 10° SSE 17:41:27 13° SE 17:42:58 10° E visible
24 Dec ? 19:13:26 10° WSW 19:14:34 19° W 19:14:34 19° W visible
25 Dec ? 18:02:02 10° SSW 18:04:52 53° SE 18:06:21 24° ENE visible
26 Dec ? 18:25:49 10° WSW 18:28:30 34° NW 18:29:30 26° N visible
